TIME,DELAY(SENSOR),PRES,T(CTD),SAL,OXYGEN,RAWTEMP,T(OPTODE),TCPHASE,FLUOR,BETA(BETA700),BETA(BETA412),BETA(BETA440),CDOM,C(CSC),ED(ED411.90),ED(ED443.80),ED(ED489.40),ED(ED554.70),LU(LU412.20),LU(LU443.80),LU(LU489.40),LU(LU555.00),COMP,TILTX,TILTX(TILTY),CHECK
1343402935,5805,497.2399902343750000,17.3481006622314450,36.4387016296386700,231.4745025634765600,176.8209991455078000,17.3472194671630860,31.1966896057128900,51,100,98,79,67,14334,2146952566,2147514057,2147270445,2147466029,2147088941,2146946084,2147657069,2147121170,1269,-2,8,30093
1343403052,5804,486.0299987792969000,17.4363994598388670,36.4551010131835940,231.8327941894531200,173.9842987060547000,17.4327907562255860,31.1404895782470700,50,102,98,80,68,14333,2146952292,2147513289,2147270555,2147466742,2147086966,2146950665,2147653467,2147118116,1459,-2,8,47918
1343403167,5803,474.9800109863281000,17.4894008636474600,36.4627990722656250,230.9911956787109400,172.2662963867187500,17.4846305847167970,31.1585197448730470,50,101,98,81,68,14334,2146951972,2147514944,2147268598,2147463533,2147086912,2146952685,2147655030,2147115062,1398,-2,8,58206
1343403282,5806,463.7999877929687500,17.5442008972167970,36.4740982055664060,231.8755950927734400,170.4644927978515600,17.5389900207519530,31.0906696319580080,51,101,97,80,67,14334,2146954395,2147512676,2147266688,2147461010,2147089088,2146956324,2147657243,2147121472,1603,-2,8,37408
1343403387,5802,453.5199890136719000,17.6508007049560550,36.4944000244140600,233.6604003906250000,166.8876953125000000,17.6469306945800780,30.9548492431640620,50,102,97,80,68,14333,2146951798,2147514066,2147269293,2147464621,2147084306,2146951954,2147653449,2147118774,1741,-2,8,49868
1343403502,5809,442.0400085449219000,17.7157001495361330,36.5061988830566400,235.8681030273437500,164.8054046630859400,17.7097702026367200,30.8202095031738280,50,102,98,80,68,14331,2146952630,2147510226,2147266733,2147463469,2147087469,2146952667,2147655414,2147115126,1820,-2,8,39119
1343403617,5809,430.5700073242187500,17.7625999450683600,36.5158004760742200,236.3800048828125000,163.1080932617187500,17.7610092163085940,30.7727394104003900,51,100,98,80,67,14336,2146956406,2147515556,2147265453,2147461321,2147087616,2146953115,2147651392,2147123821,1737,-2,8,56989
1343403722,5804,420.2000122070312500,17.8220005035400400,36.5256996154785160,237.0641021728515600,161.1423034667968800,17.8203506469726560,30.7136497497558600,50,101,97,80,68,14333,2146951241,2147512539,2147267565,2147462592,2147086820,2146950491,2147651629,2147115611,1598,-2,8,53404
1343403837,5804,408.8299865722656000,17.8659992218017580,36.5335006713867200,237.3334960937500000,159.7873992919922000,17.8612499237060550,30.6826591491699220,50,100,97,80,67,14333,2146953472,2147514011,2147268507,2147461101,2147089124,2146952868,2147655469,2147116726,1956,-2,8,53726
1343403952,5804,397.5499877929687500,17.9130001068115230,36.5405998229980500,236.8466033935547000,158.1802978515625000,17.9097805023193360,30.6846199035644530,50,102,97,79,68,14332,2146950345,2147513828,2147266651,2147464530,2147086189,2146957056,2147655488,2147115666,2773,-2,8,22611
1343404069,5805,386.3099975585937500,17.9722995758056640,36.5503005981445300,237.2162933349609400,156.3043975830078000,17.9664192199707030,30.6416206359863280,50,100,99,80,68,14333,2146951222,2147515556,2147269732,2147461760,2147088100,2146949568,2147656548,2147119140,2816,-2,8,81
1343404184,5802,375.4100036621094000,18.0081996917724600,36.5545997619628900,237.0897979736328000,155.0747070312500000,18.0035591125488280,30.6312999725341800,50,101,98,81,67,14330,2146952859,2147510345,2147268160,2147461412,2147085650,2146958994,2147654857,2147118628,2478,-2,8,54656
1343404299,5803,364.6400146484375000,18.0449008941650400,36.5595016479492200,236.5751037597656200,153.8079071044922000,18.0418205261230470,30.6389503479003900,50,101,99,81,67,14329,2146954834,2147514276,2147271798,2147455981,2147085531,2146956809,2147657188,2147118976,2314,-2,8,63869
1343404428,5804,352.7099914550781000,18.0960006713867200,36.5654983520507800,235.9992980957031200,152.1558990478515600,18.0917091369628900,30.6445808410644530,51,102,98,80,67,14331,2146950528,2147517248,2147271460,2147461696,2147086683,2146954413,2147656576,2147123465,2065,-2,8,55858
1343404543,5804,342.1400146484375000,18.1445007324218750,36.5716018676757800,235.6672058105468800,150.5939025878906200,18.1389007568359380,30.6394405364990230,50,102,97,80,67,14328,2146952310,2147515620,2147272576,2147458770,2147087332,2146958720,2147655012,2147117513,2570,-2,8,15076
1343404660,5805,331.4800109863281000,18.1751995086669920,36.5754013061523440,235.1670989990234400,149.4927978515625000,18.1721591949462900,30.6491394042968750,51,103,98,80,67,14328,2146949110,2147515456,2147275876,2147462564,2147086308,2146955876,2147656713,2147117467,2288,-2,8,3089
1343404787,5807,320.1300048828125000,18.2325000762939450,36.5802001953125000,234.5375976562500000,147.6943054199218800,18.2264995574951170,30.6552391052246100,51,102,98,81,67,14327,2146953581,2147517705,2147282102,2147459803,2147085778,2146957266,2147661156,2147122121,1829,-2,8,17439
1343404914,5805,308.9599914550781000,18.3006992340087900,36.5859985351562500,233.4615020751953000,145.4185943603515600,18.2952709197998050,30.6769199371337900,50,105,98,80,68,14323,2146952356,2147517714,2147283611,2147459355,2147088347,2146957869,2147659556,2147123648,1643,-2,8,8475
1343405043,5807,298.0000000000000000,18.3633995056152340,36.5918998718261700,232.1862945556640600,143.1656951904297000,18.3633499145507800,30.7088298797607420,51,104,99,81,68,14323,2146952548,2147518701,2147293650,2147460196,2147086720,2146960000,2147661467,2147120960,1141,-2,8,27094
1343405170,5806,287.6799926757812500,18.4305992126464840,36.5970993041992200,230.8148040771484400,141.0554046630859400,18.4271392822265620,30.7478904724121100,50,103,99,81,68,14321,2146953837,2147525942,2147301888,2147458706,2147086427,2146963913,2147666642,2147123190,654,-2,8,54203
1343405311,5804,276.5499877929687500,18.5135002136230470,36.6007995605468750,229.6517028808593800,138.3796997070312500,18.5080299377441400,30.7693500518798830,50,104,100,82,68,14319,2146953910,2147526637,2147312201,2147457243,2147088859,2146964470,2147675218,2147121508,874,-2,8,39951
1343405450,5806,265.8500061035156000,18.5718994140625000,36.5980987548828100,229.7216033935547000,136.4579010009765600,18.5661392211914060,30.7400703430175780,51,103,100,82,68,14321,2146953645,2147533851,2147331620,2147461540,2147088877,2146968128,2147684525,2147124717,424,-2,8,41440
1343405610,5805,253.1900024414062500,18.7357006072998050,36.6030998229980500,229.4420928955078000,130.6947021484375000,18.7404594421386720,30.6773490905761720,50,103,99,81,68,14317,2146954532,2147542582,2147359213,2147455332,2147086098,2146976118,2147697097,2147125522,3180,-2,8,41612
1343405723,5807,242.2599945068359400,18.8855991363525400,36.6072998046875000,230.8737945556640600,125.8538970947265600,18.8869400024414060,30.5426807403564450,52,104,99,81,67,14317,2146953947,2147558043,2147393024,2147456338,2147088320,2146981513,2147715190,2147126866,2492,-2,8,53846
1343405838,5805,230.7899932861328000,19.0053005218505860,36.6016006469726560,234.8587951660156200,122.0201034545898400,19.0029907226562500,30.2996196746826170,51,102,98,82,67,14319,2146955026,2147568731,2147445403,2147457636,2147091730,2146993892,2147746569,2147128228,2214,-2,8,31420
1343405943,5800,220.3899993896484400,19.1037006378173830,36.5952987670898440,239.5019073486328000,118.7089996337890600,19.1032505035400400,30.0367298126220700,52,107,100,83,66,14318,2146958299,2147598290,2147506998,2147456987,2147088018,2147016109,2147780726,2147134701,2891,-2,8,1418
1343406058,5804,209.1999969482422000,19.1937007904052730,36.5853996276855500,246.6416015625000000,115.8285980224609400,19.1905002593994140,29.6720008850097660,51,104,99,81,66,14318,2146963611,2147636672,2147599926,2147452288,2147091712,2147041078,2147835090,2147137545,3060,-2,8,43492
1343406173,5804,197.9700012207031200,19.2458000183105470,36.5831985473632800,250.8083038330078000,113.9199981689453100,19.2483196258544920,29.4616909027099600,51,106,99,82,65,14315,2146971190,2147687707,2147728658,2147457069,2147097170,2147075620,2147906349,2147138166,3062,-2,8,57859
1343406248,5806,190.9199981689453000,19.2793998718261720,36.5811004638671900,252.2841033935547000,113.0395965576171900,19.2749996185302730,29.3853797912597660,53,110,99,82,66,14316,2146971730,2147728704,2147828361,2147454692,2147102628,2147109997,2147967506,2147145142,2867,-2,8,44445
1343406303,5805,186.0200042724609400,19.2919998168945300,36.5805015563964840,253.4770050048828000,112.5736007690429700,19.2891197204589840,29.3274497985839840,53,111,100,82,65,14314,2146978285,2147765705,2147911926,2147456310,2147104301,2147138139,2148015963,2147149092,3293,-2,8,53226
1343406358,5805,181.2100067138672000,19.3047008514404300,36.5794982910156250,253.8339996337890600,112.2035980224609400,19.3003292083740230,29.3070392608642580,54,109,98,81,65,14310,2146982628,2147803520,2148009033,2147456978,2147107483,2147166363,2148066706,2147149942,3317,-2,8,61333
1343406413,5805,176.3800048828125000,19.3122997283935550,36.5780982971191400,254.2649993896484400,111.9393997192382800,19.3083400726318360,29.2849292755126950,55,108,99,83,64,14313,2146992822,2147854253,2148126098,2147457325,2147108160,2147206208,2148132498,2147152219,24,-2,8,11404
1343406468,5805,171.6100006103515600,19.3176002502441400,36.5783996582031250,254.5151977539062500,111.7512969970703100,19.3140392303466800,29.2716693878173830,56,110,99,81,64,14310,2147001819,2147911186,2148248621,2147456786,2147111680,2147245165,2148204534,2147156982,165,-2,8,42107
1343406523,5805,166.9499969482422000,19.3344001770019530,36.5765991210937500,254.4006042480468800,111.2412033081054700,19.3295001983642580,29.2699394226074220,61,112,100,83,64,14302,2147014144,2147975698,2148395620,2147456713,2147117421,2147289179,2148282413,2147162587,3418,-2,8,33364
1343406602,5803,160.7400054931640600,19.3498992919921880,36.5751991271972660,254.7568969726562500,110.6846008300781200,19.3463706970214840,29.2475109100341800,65,114,100,82,64,14296,2147036580,2148091410,2148646372,2147460169,2147137179,2147359506,2148419483,2147170011,3438,-2,8,12105
1343406657,5804,156.9100036621093800,19.3568992614746100,36.5761985778808600,254.6988067626953000,110.4173965454101600,19.3544692993164060,29.2466602325439450,68,118,100,82,64,14290,2147057142,2148179584,2148828918,2147460434,2147152603,2147419227,2148505792,2147175314,3131,-2,8,41169
1343406712,5805,153.1499938964843800,19.3705005645751950,36.5751991271972660,254.6726074218750000,110.0308990478515600,19.3661804199218750,29.2428398132324220,72,115,101,81,65,14288,2147080402,2148274212,2149033938,2147460032,2147157558,2147477531,2148611730,2147182820,2931,-2,8,39424
1343406779,5805,148.6000061035156200,19.3789997100830080,36.5744018554687500,254.5496063232422000,109.7488021850586000,19.3747291564941400,29.2445201873779300,78,117,99,83,65,14286,2147115282,2148426230,2149343716,2147464018,2147179638,2147566692,2148754880,2147188480,2949,-2,8,15841
1343406834,5804,144.9100036621093800,19.3950996398925780,36.5737991333007800,254.3045043945312500,109.2470016479492200,19.3899402618408200,29.2485904693603500,82,121,102,83,64,14277,2147151332,2148558710,2149620306,2147465682,2147195730,2147628864,2148875702,2147198976,3364,-2,8,53909
1343406912,5806,140.3000030517578000,19.4022998809814450,36.5746002197265600,254.3795013427734400,108.9112014770507800,19.4001197814941400,29.2409706115722660,86,119,100,84,64,14279,2147203072,2148767853,2150026221,2147471350,2147215186,2147740397,2149052406,2147208923,2898,-2,8,7240
1343406991,5804,136.4600067138672000,19.4235000610351560,36.5749015808105500,254.5621032714843800,108.2967987060546900,19.4187507629394530,29.2251300811767580,91,120,100,82,64,14274,2147265947,2148991661,2150452150,2147477202,2147248685,2147850944,2149236342,2147218852,2718,-2,8,41260
1343407070,5806,132.7899932861328000,19.4398002624511720,36.5750007629394500,254.8762969970703000,107.7471008300781200,19.4354095458984380,29.2044792175292970,98,122,102,84,66,14271,2147338962,2149250752,2150924598,2147487533,2147276589,2147968987,2149429824,2147232429,3053,-2,8,45801
1343407161,5803,128.6699981689453000,19.4780998229980470,36.5783996582031250,255.2153930664062500,106.5811996459961000,19.4707603454589840,29.1749706268310550,103,123,102,83,65,14263,2147457270,2149638765,2151626633,2147495908,2147328493,2148140178,2149697673,2147260754,2541,-2,8,50034
1343407254,5801,124.5000000000000000,19.5023994445800780,36.5770988464355500,256.1319885253906000,105.8160018920898400,19.4939594268798830,29.1257190704345700,110,123,102,83,65,14255,2147610459,2150109165,2152428205,2147511259,2147390180,2148327798,2149989686,2147280018,2782,-2,8,2827
1343407345,5803,120.5699996948242200,19.5328006744384770,36.5822982788085940,256.5852966308594000,104.6417007446289000,19.5295696258544920,29.0912799835205080,114,122,101,83,66,14250,2147813504,2150710299,2153433728,2147526564,2147471003,2148581284,2150358774,2147311625,2448,-2,8,15
1343407436,5805,116.7799987792968800,19.5659008026123050,36.5825996398925800,257.8908081054687500,103.5678024291992200,19.5621395111084000,29.0218296051025400,120,121,101,83,65,14250,2148085741,2151477997,2154632950,2147551552,2147574985,2148880877,2150792768,2147346066,2041,-2,8,13254
1343407529,5807,112.8300018310546900,19.6149005889892580,36.5853004455566400,259.8268127441406000,102.0043029785156200,19.6095695495605470,28.9200191497802730,131,121,100,83,68,14232,2148480886,2152536612,2156220096,2147583689,2147715483,2149268461,2151350912,2147393453,1763,-2,8,23465
1343407620,5805,108.7399978637695300,19.6481990814209000,36.5882987976074200,261.4578857421875000,100.9000015258789000,19.6430702209472660,28.8373603820800780,128,124,101,85,67,14229,2148995620,2153857389,2158135241,2147636882,2147895414,2149752832,2152015149,2147456786,1604,-2,8,20592
1343407711,5804,104.4800033569336000,19.6742000579834000,36.5884017944335940,262.5725097656250000,100.0317001342773400,19.6694107055664060,28.7797508239746100,130,123,102,83,68,14218,2149693750,2155565641,2160521362,2147703360,2148141229,2150374317,2152826770,2147536749,1206,-2,8,15930
1343407790,5806,100.8399963378906200,19.7119007110595700,36.5895004272460940,263.8617858886719000,98.9071731567382800,19.7035408020019530,28.7119903564453120,132,123,101,83,68,14212,2150442313,2157293412,2162822345,2147776210,2148416027,2150993545,2153622290,2147622720,788,-2,8,38948
1343407847,5805,98.3000030517578100,19.7772006988525400,36.5931015014648440,264.7565917968750000,96.7589569091796900,19.7687301635742200,28.6478404998779300,125,122,103,84,67,14214,2151135881,2158874797,2164877202,2147840365,2148668918,2151569408,2154339785,2147689398,748,-2,8,18383
1343407902,5805,96.0599975585937500,19.8213996887207030,36.5965995788574200,265.6480102539062500,95.4579162597656200,19.8082294464111330,28.5948600769042970,121,124,103,84,66,14209,2151832950,2160351113,2166681408,2147908717,2148929554,2152134491,2155009654,2147765586,533,-2,8,38764
1343407957,5807,93.9800033569336000,19.8509006500244140,36.5998001098632800,266.2609863281250000,94.5691528320312500,19.8352108001709000,28.5584297180175780,113,123,102,83,65,14213,2152632484,2162038601,2168728365,2147989293,2149217453,2152776822,2155746221,2147843227,561,-2,8,53818
1343408012,5806,92.0800018310546900,19.9029006958007800,36.6024017333984400,267.0354003906250000,93.1172409057617200,19.8792896270751950,28.5084304809570300,110,123,101,83,66,14209,2153440630,2163688658,2170622930,2148063972,2149525897,2153445750,2156500388,2147931538,924,-2,8,4653
1343408079,5805,89.9100036621093800,19.9211006164550780,36.6025009155273440,267.8309936523437500,92.0919570922851600,19.9104194641113280,28.4632301330566400,107,128,103,85,66,14202,2154462308,2165654537,2172827702,2148170313,2149942820,2154312768,2157436205,2148032905,1318,-2,8,15771
1343408134,5805,88.1699981689453100,19.9636001586914060,36.6040000915527340,268.2239074707031000,91.2125396728515600,19.9371299743652340,28.4362201690673830,104,124,102,85,64,14201,2155379529,2167375094,2174664786,2148257700,2150333229,2155080246,2158268233,2148119277,1475,-2,8,42610
1343408209,5805,85.5299987792968800,20.0275001525878900,36.6085014343261700,268.8482971191406000,88.5373764038086000,20.0183906555175780,28.3773498535156250,104,125,103,85,64,14170,2157200557,2170712310,2178309796,2148458166,2151095972,2156542080,2159780160,2148295094,1198,-2,8,12390
1343408264,5805,83.1699981689453100,20.0526008605957030,36.6110000610351560,269.8945007324219000,87.5929489135742200,20.0470905303955080,28.3234195709228500,99,123,105,85,65,14198,2159045211,2174006098,2181750729,2148642102,2151912091,2158128256,2161354770,2148465828,1159,-3,8,9232
1343408319,5805,80.9499969482421900,20.1032009124755860,36.6162986755371100,270.4418029785156000,85.9952926635742200,20.0956306457519530,28.2814693450927730,97,128,103,84,64,14195,2161287469,2177790262,2185544932,2148871369,2152896466,2159948214,2163134253,2148662774,1013,-2,8,37152
1343408374,5805,78.8300018310546900,20.1767005920410160,36.6133003234863300,271.0209960937500000,83.6794967651367200,20.1660194396972660,28.2293090820312500,93,127,104,86,65,14177,2163736923,2181750747,2189481965,2149126153,2153985234,2161879259,2164937225,2148852507,960,-2,8,29193
1343408429,5805,76.8799972534179700,20.2516994476318360,36.6218986511230500,272.1535949707031000,81.2496337890625000,20.2398891448974600,28.1538105010986330,91,128,105,86,63,14178,2166386102,2185949604,2193569078,2149412324,2155221814,2164006262,2166786596,2149061394,1029,-2,8,23616
1343408484,5803,75.0400009155273400,20.3652992248535160,36.6380996704101560,272.2930908203125000,77.7245483398437500,20.3471107482910160,28.1040592193603500,89,129,104,86,62,14125,2169132233,2190187309,2197579053,2149701485,2156579876,2166270326,2168781101,2149277266,1085,-2,8,35191
1343408563,5806,71.6800003051757800,20.4552001953125000,36.6231994628906250,274.7600097656250000,74.2381286621093800,20.4531898498535160,27.9635505676269530,84,128,106,86,63,14151,2174805778,2198226102,2204857051,2150348068,2159548818,2171065472,2172957888,2149748608,959,-2,8,43298
1343408618,5804,68.4700012207031200,20.5674991607666000,36.6301994323730500,276.5905151367187500,70.6978073120117200,20.5609607696533200,27.8481292724609380,79,130,105,87,62,14166,2180872740,2206775341,2213029778,2151228928,2162784758,2176163446,2177327826,2150270994,1067,-2,8,39217
1343408673,5806,65.2900009155273400,20.6261005401611330,36.5993995666503900,278.2903137207031000,68.2895736694336000,20.6342906951904300,27.7524795532226560,78,132,106,89,63,14152,2187421906,2215563776,2221354441,2152153700,2166131904,2181209673,2181429257,2150770596,534,-2,8,25113
1343408728,5804,62.2500000000000000,20.7238998413085940,36.5988006591796900,280.0592041015625000,66.4338531494140600,20.6908206939697270,27.6618003845214840,76,136,107,87,61,14143,2195910189,2226940123,2231998930,2153500416,2170607817,2187704786,2186860873,2151436361,125,-2,8,33548
1343408783,5807,59.3300018310546900,20.8188991546630860,36.6001014709472660,280.6023864746094000,62.7547607421875000,20.8029308319091800,27.5956497192382800,74,132,107,88,59,14136,2205193152,2238573888,2243136457,2155075977,2175535853,2194560128,2192276562,2152194139,307,-2,8,16860
1343408838,5803,56.6100006103515600,20.9578990936279300,36.5915985107421900,280.9202880859375000,57.7316513061523440,20.9560909271240230,27.5216007232666000,72,135,108,88,62,14131,2213694061,2248169206,2251367497,2156530468,2180710244,2201613147,2197850925,2152939337,146,-3,8,43610
1343408895,5804,54.2400016784668000,21.0823001861572270,36.5924987792968750,281.7789916992187500,54.4297294616699200,21.0568294525146500,27.4483604431152340,71,131,107,89,60,14140,2220782070,2256113389,2258088932,2157943817,2185105490,2207231021,2201839405,2153513819,2903,-2,8,58389
1343409037,5804,51.0800018310546900,21.3906993865966800,36.5800018310546900,281.7184143066406000,44.5027084350585940,21.3599796295166000,27.3290500640869140,69,132,107,89,61,14129,2232959680,2269938569,2270502509,2160524809,2193156150,2217507702,2209533558,2154672676,2785,-2,8,62341
1343409070,5803,50.5999984741210940,21.4505004882812500,36.5802993774414060,281.9946899414062500,42.8801689147949200,21.4095706939697270,27.2987709045410160,69,133,107,87,62,14135,2234692443,2271735113,2271814500,2160824960,2194461952,2219109632,2210601545,2154818523,2550,-2,8,44576
1343409306,5807,48.7799987792968750,21.8045997619628900,36.5733985900878900,281.0533142089844000,30.4075202941894530,21.7912101745605470,27.1820106506347660,65,135,108,88,60,14126,2247240000,2285515510,2283636361,2163219675,2204539574,2231073645,2219220032,2156092260,1492,-2,8,53866
1343409530,5804,46.9000015258789060,22.1523990631103500,36.5546989440918000,280.4619140625000000,18.5161094665527340,22.1557807922363280,27.0597705841064450,63,131,109,87,60,14131,2256624201,2294395181,2290968685,2165315968,2214139885,2242147181,2226256758,2156997092,3370,-2,9,16353
1343409599,5806,44.9199981689453100,22.4594001770019530,36.5191993713378900,278.6788024902344000,9.6253843307495120,22.4288501739501950,27.0191802978515620,63,133,108,87,61,14125,2267849344,2307324790,2303822774,2168634011,2223731849,2253311817,2234305910,2158375542,314,-3,8,32530
1343409870,5804,42.8800010681152340,22.8059005737304700,36.4939002990722660,275.9390869140625000,-2.3660480976104736,22.7978305816650400,26.9782905578613280,61,131,109,88,60,14124,2276529453,2314705517,2308742637,2170669632,2235786185,2266910052,2243515072,2159728694,2061,-3,8,56822
1343409975,5806,40.8300018310546900,22.8547000885009770,36.4870986938476560,275.2905883789062500,-4.4175801277160645,22.8610401153564450,26.9781303405761720,61,130,107,87,62,14136,2291079990,2330394514,2323591012,2175436260,2248982628,2280742473,2252580123,2161238838,1948,-2,9,22945
1343410139,5805,38.9500007629394500,23.4228000640869140,36.4452018737793000,272.1867065429687500,-21.0401096343994140,23.3741207122802730,26.8968296051025400,59,131,107,87,56,14145,2301554587,2340691730,2333416338,2179154413,2264416118,2296763218,2262989769,2163233472,2004,-2,8,12753
1343410196,5803,37.9099998474121100,23.5606002807617200,36.4688987731933600,270.6539001464844000,-26.7369899749755860,23.5503597259521500,26.8874397277832030,58,130,108,87,61,14151,2305929042,2344948077,2337874898,2181694180,2270254564,2302527076,2265663917,2163493622,2270,-2,8,47070
1343410361,5805,35.8899993896484400,23.7269001007080080,36.4458999633789060,268.7109069824219000,-32.5584793090820300,23.7306594848632800,26.8928794860839840,57,133,107,88,59,14167,2317224137,2357485275,2350669056,2187258989,2283027894,2316631195,2276045833,2165435282,2219,-2,8,9996
1343410489,5809,33.8199996948242200,23.9701995849609380,36.4516983032226560,267.0575866699219000,-39.9427185058593750,23.9596900939941400,26.8687000274658200,57,126,105,87,56,14156,2332922532,2374761161,2368366875,2195020004,2303704649,2337318628,2289887058,2168481837,1685,-2,9,61395
1343410773,5807,31.8799991607666000,24.4228000640869140,36.3785018920898440,263.1357116699219000,-55.7324409484863300,24.4506607055664060,26.8335800170898440,56,129,106,89,58,14131,2338075364,2376962395,2368860992,2198368923,2324787922,2357143881,2300454272,2170331017,1706,-2,8,16320
1343411236,5806,29.9400005340576170,26.1483001708984380,36.2500000000000000,246.2243957519531200,-109.0081024169921900,26.1208896636962900,26.8863697052001950,58,130,106,86,60,14127,2333008393,2369218660,2361657453,2199328539,2328500827,2358203081,2299436077,2170763812,1174,-3,8,59193
1343411722,5807,27.9400005340576170,26.3661003112792970,36.2331008911132800,243.5413055419922000,-116.8469009399414000,26.3685703277587900,26.9060497283935550,57,136,106,89,58,14141,2344708937,2383110107,2376731995,2207797184,2339342838,2369610916,2308254290,2173327497,986,-3,9,24199